Time,TemperatureF,DewpointF,PressureIn,WindDirection,WindDirectionDegrees,WindSpeedMPH,WindSpeedGustMPH,Humidity,HourlyPrecipIn,Conditions,Clouds,dailyrainin,SoftwareType,DateUTC
2013-01-10 00:00:00,33.4,29.4,24.23,WSW,249,0.0,0.0,85,0.00,,SKC,0.06,VWS V14.01,2013-01-10 05:00:00,
2013-01-10 00:01:00,33.4,29.4,24.23,WSW,249,0.0,0.0,85,0.00,,SKC,0.06,VWS V14.01,2013-01-10 05:01:00,
2013-01-10 00:06:00,33.3,29.3,24.40,WSW,249,0.0,0.0,85,0.00,,SKC,0.00,VWS V14.01,2013-01-10 05:06:00,
2013-01-10 00:11:00,33.2,29.2,24.40,WSW,249,0.0,0.0,85,0.00,,SKC,0.00,VWS V14.01,2013-01-10 05:11:00,
2013-01-10 00:16:00,33.1,29.4,24.40,WSW,249,0.0,0.0,86,0.00,,SKC,0.00,VWS V14.01,2013-01-10 05:16:00,
2013-01-10 00:21:00,32.9,29.2,24.49,WSW,249,0.0,0.0,86,0.00,,SKC,0.00,VWS V14.01,2013-01-10 05:21:00,
2013-01-10 00:26:00,32.6,28.9,24.49,WSW,249,0.0,0.0,86,0.00,,SKC,0.00,VWS V14.01,2013-01-10 05:26:00,
2013-01-10 00:31:00,32.4,28.7,24.52,WSW,249,0.0,0.0,86,0.00,,SKC,0.00,VWS V14.01,2013-01-10 05:31:00,
2013-01-10 00:36:00,32.3,28.9,24.52,WSW,249,0.0,0.0,87,0.00,,SKC,0.00,VWS V14.01,2013-01-10 05:36:00,
2013-01-10 00:41:00,32.3,28.9,24.53,WSW,249,0.0,0.0,87,0.00,,SKC,0.00,VWS V14.01,2013-01-10 05:41:00,
2013-01-10 00:46:00,32.3,28.9,24.56,WSW,249,0.0,0.0,87,0.00,,SKC,0.00,VWS V14.01,2013-01-10 05:46:00,
2013-01-10 00:51:00,32.1,28.7,24.56,WSW,249,0.0,0.0,87,0.00,,SKC,0.00,VWS V14.01,2013-01-10 05:51:00,
2013-01-10 00:56:00,31.8,28.4,24.56,WSW,249,0.0,0.0,87,0.00,,SKC,0.00,VWS V14.01,2013-01-10 05:56:00,
2013-01-10 01:01:00,31.5,28.1,24.51,WSW,249,0.0,0.0,87,0.00,,SKC,0.00,VWS V14.01,2013-01-10 06:01:00,
2013-01-10 01:06:00,31.2,27.8,24.50,WSW,249,0.0,0.0,87,0.00,,SKC,0.00,VWS V14.01,2013-01-10 06:06:00,
2013-01-10 01:11:00,31.1,28.2,24.53,WSW,249,0.0,0.0,89,0.00,,SKC,0.00,VWS V14.01,2013-01-10 06:11:00,
2013-01-10 01:16:00,31.1,28.2,24.53,WSW,249,0.0,0.0,89,0.00,,SKC,0.00,VWS V14.01,2013-01-10 06:16:00,
2013-01-10 01:21:00,31.0,28.1,24.53,WSW,249,0.0,0.0,89,0.00,,SKC,0.00,VWS V14.01,2013-01-10 06:21:00,
2013-01-10 01:26:00,30.8,28.0,24.52,WSW,249,0.0,0.0,89,0.00,,SKC,0.00,VWS V14.01,2013-01-10 06:26:00,
2013-01-10 01:31:00,30.8,28.0,24.48,WSW,249,0.0,0.0,89,0.00,,SKC,0.00,VWS V14.01,2013-01-10 06:31:00,
2013-01-10 01:36:00,30.5,27.4,24.48,WSW,249,0.0,0.0,88,0.00,,SKC,0.00,VWS V14.01,2013-01-10 06:36:00,
2013-01-10 01:41:00,30.2,27.4,24.53,WSW,249,0.0,0.0,89,0.00,,SKC,0.00,VWS V14.01,2013-01-10 06:41:00,
2013-01-10 01:46:00,30.1,27.3,24.53,WSW,249,0.0,0.0,89,0.00,,SKC,0.00,VWS V14.01,2013-01-10 06:46:00,
2013-01-10 01:51:00,30.1,27.5,24.53,WSW,249,0.0,0.0,90,0.00,,SKC,0.00,VWS V14.01,2013-01-10 06:51:00,
2013-01-10 01:56:00,30.0,27.4,24.40,WSW,249,0.0,0.0,90,0.00,,SKC,0.00,VWS V14.01,2013-01-10 06:56:00,
2013-01-10 02:01:00,30.0,27.4,24.57,WSW,249,0.0,0.0,90,0.00,,SKC,0.00,VWS V14.01,2013-01-10 07:01:00,
2013-01-10 02:06:00,29.9,27.3,24.51,WSW,249,0.0,0.0,90,0.00,,SKC,0.00,VWS V14.01,2013-01-10 07:06:00,
2013-01-10 02:11:00,29.6,27.0,24.52,WSW,249,0.0,0.0,90,0.00,,SKC,0.00,VWS V14.01,2013-01-10 07:11:00,
2013-01-10 02:16:00,29.6,27.0,24.56,WSW,249,0.0,0.0,90,0.00,,SKC,0.00,VWS V14.01,2013-01-10 07:16:00,
2013-01-10 02:21:00,29.7,27.4,24.55,WSW,249,0.0,0.0,91,0.00,,SKC,0.00,VWS V14.01,2013-01-10 07:21:00,
2013-01-10 02:26:00,29.8,27.2,24.54,WSW,249,0.0,0.0,90,0.00,,SKC,0.00,VWS V14.01,2013-01-10 07:26:00,
2013-01-10 02:31:00,29.8,27.2,24.55,WSW,249,1.0,1.0,90,0.00,,SKC,0.00,VWS V14.01,2013-01-10 07:31:00,
2013-01-10 02:36:00,29.7,27.1,24.52,WSW,249,0.0,0.0,90,0.00,,SKC,0.00,VWS V14.01,2013-01-10 07:36:00,
2013-01-10 02:41:00,29.7,27.1,24.51,WSW,249,0.0,0.0,90,0.00,,SKC,0.00,VWS V14.01,2013-01-10 07:41:00,
2013-01-10 02:46:00,29.6,27.0,24.50,WSW,249,0.0,0.0,90,0.00,,SKC,0.00,VWS V14.01,2013-01-10 07:46:00,
2013-01-10 02:51:00,29.6,27.0,24.53,WSW,249,0.0,0.0,90,0.00,,SKC,0.00,VWS V14.01,2013-01-10 07:51:00,
2013-01-10 02:56:00,29.6,27.0,24.53,WSW,249,0.0,0.0,90,0.00,,SKC,0.00,VWS V14.01,2013-01-10 07:56:00,
2013-01-10 03:01:00,29.5,26.9,24.52,WSW,249,0.0,0.0,90,0.00,,SKC,0.00,VWS V14.01,2013-01-10 08:01:00,
2013-01-10 03:06:00,29.4,26.8,24.53,WSW,249,0.0,0.0,90,0.00,,SKC,0.00,VWS V14.01,2013-01-10 08:06:00,
2013-01-10 03:11:00,29.3,26.7,24.54,WSW,249,0.0,0.0,90,0.00,,SKC,0.00,VWS V14.01,2013-01-10 08:11:00,
2013-01-10 03:16:00,29.2,26.6,24.53,WSW,249,0.0,0.0,90,0.00,,SKC,0.00,VWS V14.01,2013-01-10 08:16:00,
2013-01-10 03:21:00,29.2,26.9,24.53,WSW,249,0.0,0.0,91,0.00,,SKC,0.00,VWS V14.01,2013-01-10 08:21:00,
2013-01-10 03:26:00,29.2,26.9,24.53,WSW,249,0.0,0.0,91,0.00,,SKC,0.00,VWS V14.01,2013-01-10 08:26:00,
2013-01-10 03:31:00,29.2,26.9,24.52,WSW,249,0.0,0.0,91,0.00,,SKC,0.00,VWS V14.01,2013-01-10 08:31:00,
2013-01-10 03:36:00,29.1,26.8,24.54,WSW,249,0.0,0.0,91,0.00,,SKC,0.00,VWS V14.01,2013-01-10 08:36:00,
2013-01-10 03:41:00,29.0,26.7,24.53,WSW,249,0.0,0.0,91,0.00,,SKC,0.00,VWS V14.01,2013-01-10 08:41:00,
2013-01-10 03:46:00,29.0,26.7,24.54,WSW,249,0.0,0.0,91,0.00,,SKC,0.00,VWS V14.01,2013-01-10 08:46:00,
2013-01-10 03:51:00,29.0,26.7,24.54,WSW,249,0.0,0.0,91,0.00,,SKC,0.00,VWS V14.01,2013-01-10 08:51:00,
2013-01-10 03:56:00,28.8,26.5,24.53,WSW,249,0.0,0.0,91,0.00,,SKC,0.00,VWS V14.01,2013-01-10 08:56:00,
2013-01-10 04:01:00,28.7,26.4,24.52,WSW,249,0.0,0.0,91,0.00,,SKC,0.00,VWS V14.01,2013-01-10 09:01:00,
2013-01-10 04:06:00,28.7,26.4,24.52,WSW,249,0.0,0.0,91,0.00,,SKC,0.00,VWS V14.01,2013-01-10 09:06:00,
2013-01-10 04:11:00,28.6,26.3,24.51,WSW,249,0.0,0.0,91,0.00,,SKC,0.00,VWS V14.01,2013-01-10 09:11:00,
2013-01-10 04:16:00,28.5,26.2,24.51,WSW,249,0.0,0.0,91,0.00,,SKC,0.00,VWS V14.01,2013-01-10 09:16:00,
2013-01-10 04:21:00,28.5,26.2,24.53,WSW,249,0.0,0.0,91,0.00,,SKC,0.00,VWS V14.01,2013-01-10 09:21:00,
2013-01-10 04:26:00,28.4,26.1,24.53,WSW,249,0.0,0.0,91,0.00,,SKC,0.00,VWS V14.01,2013-01-10 09:26:00,
2013-01-10 04:31:00,28.4,26.1,24.53,WSW,249,0.0,0.0,91,0.00,,SKC,0.00,VWS V14.01,2013-01-10 09:31:00,
2013-01-10 04:36:00,28.3,26.0,24.52,WSW,249,0.0,0.0,91,0.00,,SKC,0.00,VWS V14.01,2013-01-10 09:36:00,
2013-01-10 04:41:00,28.3,26.3,24.50,WSW,249,0.0,0.0,92,0.00,,SKC,0.00,VWS V14.01,2013-01-10 09:41:00,
2013-01-10 04:46:00,28.3,26.3,24.49,WSW,249,0.0,0.0,92,0.00,,SKC,0.00,VWS V14.01,2013-01-10 09:46:00,
2013-01-10 04:51:00,28.1,25.8,24.51,WSW,249,0.0,0.0,91,0.00,,SKC,0.00,VWS V14.01,2013-01-10 09:51:00,
2013-01-10 04:56:00,28.0,25.7,24.51,WSW,249,0.0,0.0,91,0.00,,SKC,0.00,VWS V14.01,2013-01-10 09:56:00,
2013-01-10 05:01:00,27.9,25.9,24.51,WSW,249,0.0,0.0,92,0.00,,SKC,0.00,VWS V14.01,2013-01-10 10:01:00,
2013-01-10 05:06:00,27.9,25.9,24.54,WSW,249,0.0,0.0,92,0.00,,SKC,0.00,VWS V14.01,2013-01-10 10:06:00,
2013-01-10 05:11:00,27.8,25.8,24.54,WSW,249,0.0,0.0,92,0.00,,SKC,0.00,VWS V14.01,2013-01-10 10:11:00,
2013-01-10 05:16:00,27.8,25.8,24.54,WSW,249,0.0,0.0,92,0.00,,SKC,0.00,VWS V14.01,2013-01-10 10:16:00,
2013-01-10 05:21:00,27.8,25.8,24.54,WSW,249,0.0,0.0,92,0.00,,SKC,0.00,VWS V14.01,2013-01-10 10:21:00,
2013-01-10 05:26:00,27.8,25.8,24.51,WSW,249,0.0,0.0,92,0.00,,SKC,0.00,VWS V14.01,2013-01-10 10:26:00,
2013-01-10 05:31:00,27.8,25.8,24.52,WSW,249,0.0,0.0,92,0.00,,SKC,0.00,VWS V14.01,2013-01-10 10:31:00,
2013-01-10 05:36:00,27.8,25.8,24.56,WSW,249,0.0,0.0,92,0.00,,SKC,0.00,VWS V14.01,2013-01-10 10:36:00,
2013-01-10 05:41:00,27.8,25.8,24.56,WSW,249,0.0,0.0,92,0.00,,SKC,0.00,VWS V14.01,2013-01-10 10:41:00,
2013-01-10 05:46:00,27.8,25.8,24.51,WSW,249,0.0,0.0,92,0.00,,SKC,0.00,VWS V14.01,2013-01-10 10:46:00,
2013-01-10 05:51:00,27.8,25.8,24.69,WSW,249,0.0,0.0,92,0.00,,SKC,0.00,VWS V14.01,2013-01-10 10:51:00,
2013-01-10 05:56:00,27.8,25.8,24.69,WSW,249,0.0,0.0,92,0.00,,SKC,0.00,VWS V14.01,2013-01-10 10:56:00,
2013-01-10 06:01:00,27.8,26.0,24.69,WSW,249,0.0,0.0,93,0.00,,SKC,0.00,VWS V14.01,2013-01-10 11:01:00,
2013-01-10 06:06:00,28.0,26.2,24.53,WSW,249,0.0,0.0,93,0.00,,SKC,0.00,VWS V14.01,2013-01-10 11:06:00,
2013-01-10 06:11:00,28.0,26.2,24.53,WSW,249,0.0,0.0,93,0.00,,SKC,0.00,VWS V14.01,2013-01-10 11:11:00,
2013-01-10 06:16:00,27.9,26.1,24.53,WSW,249,0.0,0.0,93,0.00,,SKC,0.00,VWS V14.01,2013-01-10 11:16:00,
2013-01-10 06:21:00,27.9,26.1,24.53,WSW,249,0.0,0.0,93,0.00,,SKC,0.00,VWS V14.01,2013-01-10 11:21:00,
2013-01-10 06:26:00,27.9,26.1,24.55,WSW,249,0.0,0.0,93,0.00,,SKC,0.00,VWS V14.01,2013-01-10 11:26:00,
2013-01-10 06:31:00,27.9,26.1,24.55,WSW,249,0.0,0.0,93,0.00,,SKC,0.00,VWS V14.01,2013-01-10 11:31:00,
2013-01-10 06:36:00,27.9,26.1,24.55,WSW,249,0.0,0.0,93,0.00,,SKC,0.00,VWS V14.01,2013-01-10 11:36:00,
2013-01-10 06:41:00,27.9,26.1,24.51,WSW,249,0.0,0.0,93,0.00,,SKC,0.00,VWS V14.01,2013-01-10 11:41:00,
2013-01-10 06:46:00,27.9,26.1,24.51,South,191,0.0,0.0,93,0.00,,SKC,0.00,VWS V14.01,2013-01-10 11:46:00,
2013-01-10 06:51:00,28.0,26.2,24.96,South,191,0.0,0.0,93,0.00,,SKC,0.00,VWS V14.01,2013-01-10 11:51:00,
2013-01-10 06:56:00,28.3,26.5,24.96,SSW,192,0.0,0.0,93,0.00,,SKC,0.00,VWS V14.01,2013-01-10 11:56:00,
2013-01-10 07:01:00,28.4,26.6,24.43,South,191,0.0,0.0,93,0.00,,SKC,0.00,VWS V14.01,2013-01-10 12:01:00,
2013-01-10 07:06:00,28.9,27.1,24.43,South,191,0.0,0.0,93,0.00,,SKC,0.00,VWS V14.01,2013-01-10 12:06:00,
2013-01-10 07:11:00,29.4,27.4,24.43,South,191,0.0,0.0,92,0.00,,SKC,0.00,VWS V14.01,2013-01-10 12:11:00,
2013-01-10 07:16:00,29.7,27.4,24.43,South,190,0.0,0.0,91,0.00,,SKC,0.00,VWS V14.01,2013-01-10 12:16:00,
2013-01-10 07:21:00,30.0,27.4,24.31,South,190,0.0,2.0,90,0.00,,SKC,0.00,VWS V14.01,2013-01-10 12:21:00,
2013-01-10 07:26:00,30.5,27.6,24.37,South,190,1.0,1.0,89,0.00,,SKC,0.00,VWS V14.01,2013-01-10 12:26:00,
2013-01-10 07:31:00,30.8,27.7,24.37,South,190,0.0,0.0,88,0.00,,SKC,0.00,VWS V14.01,2013-01-10 12:31:00,
2013-01-10 07:36:00,30.9,27.5,24.54,South,189,0.0,0.0,87,0.00,,SKC,0.00,VWS V14.01,2013-01-10 12:36:00,
2013-01-10 07:41:00,31.0,27.3,24.54,South,189,0.0,2.0,86,0.00,,SKC,0.00,VWS V14.01,2013-01-10 12:41:00,
2013-01-10 07:46:00,31.2,27.5,24.54,SSE,159,0.0,0.0,86,0.00,,SKC,0.00,VWS V14.01,2013-01-10 12:46:00,
2013-01-10 07:51:00,31.4,27.4,24.54,SSE,157,1.0,1.0,85,0.00,,SKC,0.00,VWS V14.01,2013-01-10 12:51:00,
2013-01-10 07:56:00,31.5,27.5,24.54,SSE,153,0.0,2.0,85,0.00,,SKC,0.00,VWS V14.01,2013-01-10 12:56:00,
2013-01-10 08:01:00,31.6,27.3,24.54,SSE,150,0.0,0.0,84,0.00,,SKC,0.00,VWS V14.01,2013-01-10 13:01:00,
2013-01-10 08:06:00,31.7,27.1,24.54,SSE,151,0.0,1.0,83,0.00,,SKC,0.00,VWS V14.01,2013-01-10 13:06:00,
2013-01-10 08:11:00,31.8,27.2,24.54,SSE,149,0.0,0.0,83,0.00,,SKC,0.00,VWS V14.01,2013-01-10 13:11:00,
2013-01-10 08:16:00,32.0,27.1,24.54,SSE,148,0.0,1.0,82,0.00,,SKC,0.00,VWS V14.01,2013-01-10 13:16:00,
2013-01-10 08:21:00,32.2,27.0,24.54,ESE,107,0.0,2.0,81,0.00,,SKC,0.00,VWS V14.01,2013-01-10 13:21:00,
2013-01-10 08:26:00,32.5,27.0,24.54,ESE,106,0.0,2.0,80,0.00,,SKC,0.00,VWS V14.01,2013-01-10 13:26:00,
2013-01-10 08:31:00,32.8,27.3,24.54,ESE,111,0.0,2.0,80,0.00,,SKC,0.00,VWS V14.01,2013-01-10 13:31:00,
2013-01-10 08:36:00,33.0,27.2,24.86,ESE,109,0.0,3.0,79,0.00,,SKC,0.00,VWS V14.01,2013-01-10 13:36:00,
2013-01-10 08:41:00,33.2,27.4,24.86,ESE,109,0.0,4.0,79,0.00,,SKC,0.00,VWS V14.01,2013-01-10 13:41:00,
2013-01-10 08:46:00,33.3,27.2,24.86,ESE,108,0.0,7.0,78,0.00,,SKC,0.00,VWS V14.01,2013-01-10 13:46:00,
2013-01-10 08:51:00,33.4,27.3,24.35,ESE,122,0.0,4.0,78,0.00,,SKC,0.00,VWS V14.01,2013-01-10 13:51:00,
2013-01-10 08:56:00,33.4,27.6,24.35,ESE,107,2.0,3.0,79,0.00,,SKC,0.00,VWS V14.01,2013-01-10 13:56:00,
2013-01-10 09:01:00,33.4,27.6,24.35,SE,130,1.0,4.0,79,0.00,,SKC,0.00,VWS V14.01,2013-01-10 14:01:00,
2013-01-10 09:06:00,33.6,27.5,24.35,SE,130,0.0,7.0,78,0.00,,SKC,0.00,VWS V14.01,2013-01-10 14:06:00,
2013-01-10 09:11:00,33.7,27.9,24.35,SE,129,0.0,3.0,79,0.00,,SKC,0.00,VWS V14.01,2013-01-10 14:11:00,
2013-01-10 09:16:00,33.8,28.0,24.35,ESE,114,0.0,3.0,79,0.00,,SKC,0.00,VWS V14.01,2013-01-10 14:16:00,
2013-01-10 09:21:00,33.8,28.0,24.35,ESE,123,3.0,4.0,79,0.00,,SKC,0.00,VWS V14.01,2013-01-10 14:21:00,
2013-01-10 09:26:00,34.0,27.9,24.35,ESE,119,0.0,4.0,78,0.00,,SKC,0.00,VWS V14.01,2013-01-10 14:26:00,
2013-01-10 09:31:00,34.2,28.1,24.35,ESE,109,3.0,4.0,78,0.00,,SKC,0.00,VWS V14.01,2013-01-10 14:31:00,
2013-01-10 09:36:00,34.5,28.4,24.35,ESE,118,0.0,5.0,78,0.00,,SKC,0.00,VWS V14.01,2013-01-10 14:36:00,
2013-01-10 09:41:00,34.7,28.2,24.35,ESE,122,2.0,5.0,77,0.00,,SKC,0.00,VWS V14.01,2013-01-10 14:41:00,
2013-01-10 09:46:00,34.9,28.4,24.35,ESE,114,2.0,6.0,77,0.00,,SKC,0.00,VWS V14.01,2013-01-10 14:46:00,
2013-01-10 09:51:00,35.2,28.7,24.35,ESE,121,4.0,4.0,77,0.00,,SKC,0.00,VWS V14.01,2013-01-10 14:51:00,
2013-01-10 09:56:00,35.4,28.6,24.35,SE,124,3.0,4.0,76,0.00,,SKC,0.00,VWS V14.01,2013-01-10 14:56:00,
2013-01-10 10:01:00,35.5,28.7,24.35,ESE,121,2.0,5.0,76,0.00,,SKC,0.00,VWS V14.01,2013-01-10 15:01:00,
2013-01-10 10:06:00,35.7,28.9,24.35,ESE,119,0.0,4.0,76,0.00,,SKC,0.00,VWS V14.01,2013-01-10 15:06:00,
2013-01-10 10:11:00,35.9,28.8,24.35,SE,135,5.0,8.0,75,0.00,,SKC,0.00,VWS V14.01,2013-01-10 15:11:00,
2013-01-10 10:16:00,36.0,28.9,24.35,ESE,123,0.0,9.0,75,0.00,,SKC,0.00,VWS V14.01,2013-01-10 15:16:00,
2013-01-10 10:21:00,36.2,29.0,24.35,SE,126,2.0,5.0,75,0.00,,SKC,0.00,VWS V14.01,2013-01-10 15:21:00,
2013-01-10 10:26:00,36.2,29.0,24.35,ESE,119,3.0,6.0,75,0.00,,SKC,0.00,VWS V14.01,2013-01-10 15:26:00,
2013-01-10 10:31:00,36.4,29.2,24.35,ESE,122,0.0,4.0,75,0.00,,SKC,0.00,VWS V14.01,2013-01-10 15:31:00,
2013-01-10 10:36:00,36.6,29.4,24.35,ESE,119,0.0,9.0,75,0.00,,SKC,0.00,VWS V14.01,2013-01-10 15:36:00,
2013-01-10 10:41:00,36.8,29.3,24.35,ESE,122,2.0,5.0,74,0.00,,SKC,0.00,VWS V14.01,2013-01-10 15:41:00,
2013-01-10 10:46:00,37.0,29.2,24.35,ESE,120,5.0,5.0,73,0.00,,SKC,0.00,VWS V14.01,2013-01-10 15:46:00,
2013-01-10 10:51:00,37.2,29.0,24.35,SE,133,2.0,10.0,72,0.00,,SKC,0.00,VWS V14.01,2013-01-10 15:51:00,
2013-01-10 10:56:00,37.3,29.1,24.35,ESE,123,0.0,7.0,72,0.00,,SKC,0.00,VWS V14.01,2013-01-10 15:56:00,
2013-01-10 11:01:00,37.4,29.2,24.53,ESE,120,1.0,6.0,72,0.00,,SKC,0.00,VWS V14.01,2013-01-10 16:01:00,
2013-01-10 11:06:00,37.4,29.2,24.41,East,99,3.0,10.0,72,0.00,,SKC,0.00,VWS V14.01,2013-01-10 16:06:00,
2013-01-10 11:11:00,37.5,29.6,24.32,ESE,118,4.0,6.0,73,0.00,,SKC,0.00,VWS V14.01,2013-01-10 16:11:00,
2013-01-10 11:16:00,37.6,29.4,24.55,ESE,117,5.0,11.0,72,0.00,,SKC,0.00,VWS V14.01,2013-01-10 16:16:00,
2013-01-10 11:21:00,37.7,29.5,24.55,SE,129,4.0,10.0,72,0.00,,SKC,0.00,VWS V14.01,2013-01-10 16:21:00,
2013-01-10 11:26:00,37.7,29.5,24.55,SE,138,4.0,7.0,72,0.00,,SKC,0.00,VWS V14.01,2013-01-10 16:26:00,
2013-01-10 11:31:00,37.7,29.5,24.54,ESE,109,4.0,6.0,72,0.00,,SKC,0.00,VWS V14.01,2013-01-10 16:31:00,
2013-01-10 11:36:00,37.7,29.5,24.54,ESE,113,3.0,6.0,72,0.00,,SKC,0.00,VWS V14.01,2013-01-10 16:36:00,
2013-01-10 11:41:00,37.7,29.8,24.55,South,173,2.0,9.0,73,0.00,,SKC,0.00,VWS V14.01,2013-01-10 16:41:00,
2013-01-10 11:46:00,37.7,29.8,24.53,ESE,123,2.0,7.0,73,0.00,,SKC,0.00,VWS V14.01,2013-01-10 16:46:00,
2013-01-10 11:51:00,37.7,29.8,24.54,ESE,118,2.0,9.0,73,0.00,,SKC,0.00,VWS V14.01,2013-01-10 16:51:00,
2013-01-10 11:56:00,37.7,29.8,24.55,ESE,115,6.0,7.0,73,0.00,,SKC,0.00,VWS V14.01,2013-01-10 16:56:00,
2013-01-10 12:01:00,37.8,29.9,24.56,ESE,119,3.0,9.0,73,0.00,,SKC,0.00,VWS V14.01,2013-01-10 17:01:00,
2013-01-10 12:06:00,37.9,30.0,24.54,East,82,2.0,9.0,73,0.00,,SKC,0.00,VWS V14.01,2013-01-10 17:06:00,
2013-01-10 12:11:00,37.9,29.7,24.54,East,92,6.0,9.0,72,0.00,,SKC,0.00,VWS V14.01,2013-01-10 17:11:00,
2013-01-10 12:16:00,38.0,29.8,24.54,ESE,123,5.0,6.0,72,0.00,,SKC,0.00,VWS V14.01,2013-01-10 17:16:00,
2013-01-10 12:21:00,38.0,29.8,24.53,SE,131,6.0,8.0,72,0.00,,SKC,0.00,VWS V14.01,2013-01-10 17:21:00,
2013-01-10 12:26:00,38.1,29.5,24.55,SE,125,4.0,10.0,71,0.00,,SKC,0.00,VWS V14.01,2013-01-10 17:26:00,
2013-01-10 12:31:00,38.1,29.5,24.53,ESE,111,2.0,9.0,71,0.00,,SKC,0.00,VWS V14.01,2013-01-10 17:31:00,
2013-01-10 12:36:00,38.2,29.6,24.54,SE,144,9.0,12.0,71,0.00,,SKC,0.00,VWS V14.01,2013-01-10 17:36:00,
2013-01-10 12:41:00,38.3,29.7,24.52,SE,132,5.0,9.0,71,0.00,,SKC,0.00,VWS V14.01,2013-01-10 17:41:00,
2013-01-10 12:46:00,38.3,29.7,24.53,ESE,117,3.0,9.0,71,0.00,,SKC,0.00,VWS V14.01,2013-01-10 17:46:00,
2013-01-10 12:51:00,38.3,29.7,24.52,ESE,122,5.0,5.0,71,0.00,,SKC,0.00,VWS V14.01,2013-01-10 17:51:00,
2013-01-10 12:56:00,38.4,29.8,24.52,SE,125,3.0,10.0,71,0.00,,SKC,0.00,VWS V14.01,2013-01-10 17:56:00,
2013-01-10 13:01:00,38.4,29.5,24.51,East,89,1.0,7.0,70,0.00,,SKC,0.00,VWS V14.01,2013-01-10 18:01:00,
2013-01-10 13:06:00,38.4,29.5,24.53,ESE,104,3.0,11.0,70,0.00,,SKC,0.00,VWS V14.01,2013-01-10 18:06:00,
2013-01-10 13:11:00,38.4,29.5,24.54,SE,132,9.0,9.0,70,0.00,,SKC,0.00,VWS V14.01,2013-01-10 18:11:00,
2013-01-10 13:16:00,38.3,29.7,24.51,SE,130,0.0,5.0,71,0.00,,SKC,0.00,VWS V14.01,2013-01-10 18:16:00,
2013-01-10 13:21:00,38.4,29.8,24.53,ESE,105,1.0,9.0,71,0.00,,SKC,0.00,VWS V14.01,2013-01-10 18:21:00,
2013-01-10 13:26:00,38.4,29.5,24.54,ESE,117,1.0,10.0,70,0.00,,SKC,0.00,VWS V14.01,2013-01-10 18:26:00,
2013-01-10 13:31:00,38.4,29.5,24.52,East,99,1.0,9.0,70,0.00,,SKC,0.00,VWS V14.01,2013-01-10 18:31:00,
2013-01-10 13:36:00,38.4,29.5,24.52,SE,134,2.0,9.0,70,0.00,,SKC,0.00,VWS V14.01,2013-01-10 18:36:00,
2013-01-10 13:41:00,38.5,29.6,24.54,SSE,150,0.0,6.0,70,0.00,,SKC,0.00,VWS V14.01,2013-01-10 18:41:00,
2013-01-10 13:46:00,38.7,29.8,24.52,South,170,1.0,9.0,70,0.00,,SKC,0.00,VWS V14.01,2013-01-10 18:46:00,
2013-01-10 13:51:00,38.8,29.9,24.50,SE,138,0.0,3.0,70,0.00,,SKC,0.00,VWS V14.01,2013-01-10 18:51:00,
2013-01-10 13:55:00,38.9,30.0,24.53,SSE,150,3.0,6.0,70,0.00,,SKC,0.00,VWS V14.01,2013-01-10 18:55:00,
2013-01-10 14:00:00,39.0,29.7,24.54,SSE,157,4.0,9.0,69,0.00,,SKC,0.00,VWS V14.01,2013-01-10 19:00:00,
2013-01-10 14:05:00,39.1,29.8,24.54,SE,132,3.0,11.0,69,0.00,,SKC,0.00,VWS V14.01,2013-01-10 19:05:00,
2013-01-10 14:10:00,39.2,29.9,24.34,SE,125,4.0,7.0,69,0.00,,SKC,0.00,VWS V14.01,2013-01-10 19:10:00,
2013-01-10 14:15:00,39.3,30.0,24.55,ESE,118,3.0,10.0,69,0.00,,SKC,0.00,VWS V14.01,2013-01-10 19:15:00,
2013-01-10 14:20:00,39.4,30.1,24.55,SE,128,5.0,11.0,69,0.00,,SKC,0.00,VWS V14.01,2013-01-10 19:20:00,
2013-01-10 14:25:00,39.4,30.4,24.53,SE,136,3.0,7.0,70,0.00,,SKC,0.00,VWS V14.01,2013-01-10 19:25:00,
2013-01-10 14:30:00,39.5,30.5,24.53,East,94,10.0,11.0,70,0.00,,SKC,0.00,VWS V14.01,2013-01-10 19:30:00,
2013-01-10 14:35:00,39.5,30.5,24.55,ESE,119,0.0,9.0,70,0.00,,SKC,0.00,VWS V14.01,2013-01-10 19:35:00,
2013-01-10 14:40:00,39.6,30.6,24.56,SE,127,6.0,11.0,70,0.00,,SKC,0.00,VWS V14.01,2013-01-10 19:40:00,
2013-01-10 14:45:00,39.5,30.5,24.53,SE,146,4.0,8.0,70,0.00,,SKC,0.00,VWS V14.01,2013-01-10 19:45:00,
2013-01-10 14:50:00,39.5,30.5,24.54,SE,130,3.0,11.0,70,0.00,,SKC,0.00,VWS V14.01,2013-01-10 19:50:00,
2013-01-10 14:55:00,39.6,31.0,24.56,ESE,111,6.0,9.0,71,0.00,,SKC,0.00,VWS V14.01,2013-01-10 19:55:00,
2013-01-10 15:00:00,39.6,30.6,24.54,ESE,114,1.0,11.0,70,0.00,,SKC,0.00,VWS V14.01,2013-01-10 20:00:00,
2013-01-10 15:05:00,39.5,30.5,24.53,ESE,118,1.0,13.0,70,0.00,,SKC,0.00,VWS V14.01,2013-01-10 20:05:00,
2013-01-10 15:10:00,39.5,30.9,24.56,ESE,103,9.0,9.0,71,0.00,,SKC,0.00,VWS V14.01,2013-01-10 20:10:00,
2013-01-10 15:15:00,39.4,30.8,24.56,ESE,111,0.0,10.0,71,0.00,,SKC,0.00,VWS V14.01,2013-01-10 20:15:00,
2013-01-10 15:20:00,39.3,30.7,24.55,SSE,148,4.0,11.0,71,0.00,,SKC,0.00,VWS V14.01,2013-01-10 20:20:00,
2013-01-10 15:25:00,39.3,30.7,24.57,ESE,121,6.0,11.0,71,0.00,,SKC,0.00,VWS V14.01,2013-01-10 20:25:00,
2013-01-10 15:30:00,39.3,30.7,24.56,ESE,123,4.0,11.0,71,0.00,,SKC,0.00,VWS V14.01,2013-01-10 20:30:00,
2013-01-10 15:35:00,39.3,31.0,24.55,ESE,103,1.0,12.0,72,0.00,,SKC,0.00,VWS V14.01,2013-01-10 20:35:00,
2013-01-10 15:40:00,39.3,31.0,24.54,ESE,119,3.0,13.0,72,0.00,,SKC,0.00,VWS V14.01,2013-01-10 20:40:00,
2013-01-10 15:45:00,39.3,31.0,24.52,SE,131,4.0,11.0,72,0.00,,SKC,0.00,VWS V14.01,2013-01-10 20:45:00,
2013-01-10 15:50:00,39.3,31.0,24.55,East,98,9.0,11.0,72,0.00,,SKC,0.00,VWS V14.01,2013-01-10 20:50:00,
2013-01-10 15:55:00,39.3,31.4,24.53,ESE,121,2.0,16.0,73,0.00,,SKC,0.00,VWS V14.01,2013-01-10 20:55:00,
2013-01-10 16:00:00,39.3,31.4,24.57,SSE,147,10.0,15.0,73,0.00,,SKC,0.00,VWS V14.01,2013-01-10 21:00:00,
2013-01-10 16:05:00,39.2,31.6,24.54,SE,145,5.0,9.0,74,0.00,,SKC,0.00,VWS V14.01,2013-01-10 21:05:00,
2013-01-10 16:10:00,39.2,31.6,24.55,SE,137,5.0,15.0,74,0.00,,SKC,0.00,VWS V14.01,2013-01-10 21:10:00,
2013-01-10 16:15:00,39.0,31.8,24.55,SSE,148,8.0,11.0,75,0.00,,SKC,0.00,VWS V14.01,2013-01-10 21:15:00,
2013-01-10 16:20:00,38.9,32.0,24.58,SE,129,9.0,10.0,76,0.00,,SKC,0.00,VWS V14.01,2013-01-10 21:20:00,
2013-01-10 16:25:00,38.8,32.2,24.36,SE,130,5.0,11.0,77,0.00,,SKC,0.00,VWS V14.01,2013-01-10 21:25:00,
2013-01-10 16:30:00,38.8,32.2,24.55,SE,136,6.0,13.0,77,0.00,,SKC,0.00,VWS V14.01,2013-01-10 21:30:00,
2013-01-10 16:35:00,38.8,32.2,24.55,SE,134,7.0,10.0,77,0.00,,SKC,0.00,VWS V14.01,2013-01-10 21:35:00,
2013-01-10 16:41:00,38.7,32.1,24.57,SE,126,6.0,11.0,77,0.00,,SKC,0.00,VWS V14.01,2013-01-10 21:41:00,
2013-01-10 16:46:00,38.8,32.5,24.58,SE,142,5.0,11.0,78,0.00,,SKC,0.00,VWS V14.01,2013-01-10 21:46:00,
2013-01-10 16:51:00,38.8,32.5,24.55,SE,132,1.0,11.0,78,0.00,,SKC,0.00,VWS V14.01,2013-01-10 21:51:00,
2013-01-10 16:56:00,38.8,32.9,24.57,SE,140,5.0,7.0,79,0.00,,SKC,0.00,VWS V14.01,2013-01-10 21:56:00,
2013-01-10 17:01:00,38.8,32.9,24.54,SSE,147,4.0,7.0,79,0.00,,SKC,0.00,VWS V14.01,2013-01-10 22:01:00,
2013-01-10 17:06:00,38.8,32.9,24.55,SE,128,3.0,7.0,79,0.00,,SKC,0.00,VWS V14.01,2013-01-10 22:06:00,
2013-01-10 17:11:00,38.8,32.9,24.53,South,171,0.0,11.0,79,0.00,,SKC,0.00,VWS V14.01,2013-01-10 22:11:00,
2013-01-10 17:25:00,38.9,33.0,24.49,ESE,112,3.0,9.0,79,0.00,,SKC,0.00,VWS V14.01,2013-01-10 22:25:00,
2013-01-10 17:37:00,38.9,33.0,24.48,SE,146,4.0,4.0,79,0.00,,SKC,0.00,VWS V14.01,2013-01-10 22:37:00,
2013-01-10 17:42:00,38.9,33.0,24.48,ESE,113,1.0,5.0,79,0.00,,SKC,0.00,VWS V14.01,2013-01-10 22:42:00,
2013-01-10 17:47:00,38.9,33.0,24.43,SE,134,0.0,8.0,79,0.00,,SKC,0.00,VWS V14.01,2013-01-10 22:47:00,
2013-01-10 17:52:00,38.9,33.0,24.43,ESE,114,4.0,8.0,79,0.00,,SKC,0.00,VWS V14.01,2013-01-10 22:52:00,
2013-01-10 17:57:00,39.0,33.0,24.47,ESE,123,6.0,9.0,79,0.00,,SKC,0.00,VWS V14.01,2013-01-10 22:57:00,
2013-01-10 18:02:00,39.1,32.8,24.26,SSE,156,3.0,9.0,78,0.00,,SKC,0.00,VWS V14.01,2013-01-10 23:02:00,
2013-01-10 18:07:00,39.3,33.0,24.28,SE,133,4.0,9.0,78,0.00,,SKC,0.00,VWS V14.01,2013-01-10 23:07:00,
2013-01-10 18:12:00,39.4,33.1,24.26,SSE,156,3.0,12.0,78,0.00,,SKC,0.00,VWS V14.01,2013-01-10 23:12:00,
2013-01-10 18:17:00,39.7,33.1,24.27,SSE,149,6.0,13.0,77,0.00,,SKC,0.00,VWS V14.01,2013-01-10 23:17:00,
2013-01-10 18:22:00,39.8,33.2,24.30,ESE,122,3.0,13.0,77,0.00,,SKC,0.00,VWS V14.01,2013-01-10 23:22:00,
2013-01-10 18:27:00,39.9,33.6,24.28,ESE,123,6.0,6.0,78,0.00,,SKC,0.00,VWS V14.01,2013-01-10 23:27:00,
2013-01-10 18:32:00,39.7,33.7,24.25,ESE,123,4.0,14.0,79,0.01,,SKC,0.01,VWS V14.01,2013-01-10 23:32:00,
2013-01-10 18:37:00,39.4,34.1,24.25,SSE,147,5.0,9.0,81,0.03,,SKC,0.03,VWS V14.01,2013-01-10 23:37:00,
2013-01-10 18:42:00,39.3,34.3,24.25,East,95,5.0,16.0,82,0.03,,SKC,0.03,VWS V14.01,2013-01-10 23:42:00,
2013-01-10 18:47:00,39.4,34.1,24.25,ESE,123,11.0,13.0,81,0.03,,SKC,0.03,VWS V14.01,2013-01-10 23:47:00,
2013-01-10 18:52:00,39.5,34.2,24.25,SE,144,12.0,19.0,81,0.03,,SKC,0.03,VWS V14.01,2013-01-10 23:52:00,
2013-01-10 18:57:00,39.5,34.5,24.25,SSE,167,14.0,16.0,82,0.03,,SKC,0.03,VWS V14.01,2013-01-10 23:57:00,
2013-01-10 19:02:00,39.4,34.7,24.25,SSE,156,9.0,14.0,83,0.03,,SKC,0.03,VWS V14.01,2013-01-11 00:02:00,
2013-01-10 19:07:00,39.2,34.8,24.25,ESE,117,11.0,14.0,84,0.03,,SKC,0.03,VWS V14.01,2013-01-11 00:07:00,
2013-01-10 19:12:00,39.2,35.1,24.25,SE,144,5.0,15.0,85,0.03,,SKC,0.03,VWS V14.01,2013-01-11 00:12:00,
2013-01-10 19:17:00,39.2,35.4,24.23,SSE,152,7.0,18.0,86,0.03,,SKC,0.03,VWS V14.01,2013-01-11 00:17:00,
2013-01-10 19:22:00,39.1,35.6,24.25,SSE,162,11.0,12.0,87,0.03,,SKC,0.03,VWS V14.01,2013-01-11 00:22:00,
2013-01-10 19:27:00,39.1,35.6,24.30,SSE,149,10.0,15.0,87,0.03,,SKC,0.03,VWS V14.01,2013-01-11 00:27:00,
2013-01-10 19:32:00,39.2,35.7,24.30,SE,142,3.0,14.0,87,0.03,,SKC,0.03,VWS V14.01,2013-01-11 00:32:00,
2013-01-10 19:37:00,39.2,36.0,24.25,SSE,160,4.0,4.0,88,0.00,,SKC,0.03,VWS V14.01,2013-01-11 00:37:00,
2013-01-10 19:42:00,39.3,36.0,24.24,SE,136,6.0,13.0,88,0.00,,SKC,0.03,VWS V14.01,2013-01-11 00:42:00,
2013-01-10 19:47:00,39.5,36.0,24.25,SSE,161,7.0,10.0,87,0.00,,SKC,0.03,VWS V14.01,2013-01-11 00:47:00,
2013-01-10 19:52:00,39.5,36.0,24.25,ESE,103,5.0,12.0,87,0.00,,SKC,0.03,VWS V14.01,2013-01-11 00:52:00,
2013-01-10 19:57:00,39.7,36.2,24.27,SSE,151,12.0,16.0,87,0.00,,SKC,0.03,VWS V14.01,2013-01-11 00:57:00,
2013-01-10 20:02:00,39.8,36.2,24.32,SSE,156,6.0,6.0,87,0.00,,SKC,0.03,VWS V14.01,2013-01-11 01:02:00,
2013-01-10 20:07:00,39.8,36.5,24.31,SSE,157,5.0,13.0,88,0.00,,SKC,0.03,VWS V14.01,2013-01-11 01:07:00,
2013-01-10 20:12:00,39.8,36.5,24.27,SSE,158,3.0,3.0,88,0.00,,SKC,0.03,VWS V14.01,2013-01-11 01:12:00,
2013-01-10 20:17:00,40.0,36.7,24.28,SSE,161,6.0,12.0,88,0.00,,SKC,0.03,VWS V14.01,2013-01-11 01:17:00,
2013-01-10 20:22:00,40.2,36.9,24.28,SSE,148,9.0,16.0,88,0.00,,SKC,0.03,VWS V14.01,2013-01-11 01:22:00,
2013-01-10 20:27:00,40.5,36.9,24.30,SSE,150,10.0,13.0,87,0.00,,SKC,0.03,VWS V14.01,2013-01-11 01:27:00,
2013-01-10 20:33:00,40.5,36.9,24.29,SE,125,13.0,13.0,87,0.00,,SKC,0.03,VWS V14.01,2013-01-11 01:33:00,
2013-01-10 20:38:00,40.5,37.2,24.31,SE,140,6.0,6.0,88,0.00,,SKC,0.03,VWS V14.01,2013-01-11 01:38:00,
2013-01-10 20:42:00,40.3,37.0,24.31,SE,141,9.0,9.0,88,0.01,,SKC,0.04,VWS V14.01,2013-01-11 01:42:00,
2013-01-10 20:47:00,40.3,37.3,24.29,SE,144,3.0,6.0,89,0.01,,SKC,0.04,VWS V14.01,2013-01-11 01:47:00,
2013-01-10 20:52:00,40.3,37.3,24.30,SE,132,8.0,11.0,89,0.01,,SKC,0.04,VWS V14.01,2013-01-11 01:52:00,
2013-01-10 20:57:00,40.4,37.4,24.28,SE,130,6.0,14.0,89,0.01,,SKC,0.04,VWS V14.01,2013-01-11 01:57:00,
2013-01-10 21:02:00,40.5,37.2,24.29,SE,125,7.0,7.0,88,0.02,,SKC,0.05,VWS V14.01,2013-01-11 02:02:00,
2013-01-10 21:07:00,40.6,37.3,24.28,SE,129,6.0,8.0,88,0.02,,SKC,0.05,VWS V14.01,2013-01-11 02:07:00,
2013-01-10 21:12:00,40.7,37.4,24.27,SE,131,3.0,7.0,88,0.02,,SKC,0.05,VWS V14.01,2013-01-11 02:12:00,
2013-01-10 21:17:00,40.9,37.3,24.28,SSE,149,8.0,16.0,87,0.02,,SKC,0.05,VWS V14.01,2013-01-11 02:17:00,
2013-01-10 21:22:00,41.0,37.1,24.27,ESE,119,6.0,14.0,86,0.02,,SKC,0.05,VWS V14.01,2013-01-11 02:22:00,
2013-01-10 21:27:00,41.1,36.9,24.27,SE,128,5.0,5.0,85,0.02,,SKC,0.05,VWS V14.01,2013-01-11 02:27:00,
2013-01-10 21:32:00,41.2,37.0,24.22,SE,130,6.0,13.0,85,0.02,,SKC,0.05,VWS V14.01,2013-01-11 02:32:00,
2013-01-10 21:37:00,41.3,36.8,24.23,SSE,163,5.0,12.0,84,0.02,,SKC,0.05,VWS V14.01,2013-01-11 02:37:00,
2013-01-10 21:43:00,41.4,36.9,24.23,SSE,154,3.0,13.0,84,0.02,,SKC,0.05,VWS V14.01,2013-01-11 02:43:00,
2013-01-10 21:48:00,41.6,36.8,24.27,SE,136,7.0,7.0,83,0.01,,SKC,0.05,VWS V14.01,2013-01-11 02:48:00,
2013-01-10 21:53:00,41.7,36.9,24.29,SSE,167,9.0,14.0,83,0.01,,SKC,0.05,VWS V14.01,2013-01-11 02:53:00,
2013-01-10 21:58:00,42.0,36.9,24.27,SSE,150,10.0,10.0,82,0.01,,SKC,0.05,VWS V14.01,2013-01-11 02:58:00,
2013-01-10 22:03:00,42.2,36.8,24.31,SE,142,4.0,6.0,81,0.00,,SKC,0.05,VWS V14.01,2013-01-11 03:03:00,
2013-01-10 22:08:00,42.2,36.8,24.29,SSE,161,6.0,9.0,81,0.00,,SKC,0.05,VWS V14.01,2013-01-11 03:08:00,
2013-01-10 22:13:00,42.4,36.7,24.27,SSE,156,4.0,4.0,80,0.00,,SKC,0.05,VWS V14.01,2013-01-11 03:13:00,
2013-01-10 22:18:00,42.7,36.7,24.24,SE,134,10.0,10.0,79,0.00,,SKC,0.05,VWS V14.01,2013-01-11 03:18:00,
2013-01-10 22:23:00,43.3,36.6,24.28,SE,140,9.0,12.0,77,0.00,,SKC,0.05,VWS V14.01,2013-01-11 03:23:00,
2013-01-10 22:28:00,43.4,36.7,24.26,SSE,151,7.0,14.0,77,0.00,,SKC,0.05,VWS V14.01,2013-01-11 03:28:00,
2013-01-10 22:33:00,43.5,36.5,24.27,SSE,164,6.0,6.0,76,0.00,,SKC,0.05,VWS V14.01,2013-01-11 03:33:00,
2013-01-10 22:38:00,43.6,36.5,24.31,SSE,157,12.0,14.0,76,0.00,,SKC,0.05,VWS V14.01,2013-01-11 03:38:00,
2013-01-10 22:43:00,43.7,36.6,24.30,SE,141,5.0,7.0,76,0.00,,SKC,0.05,VWS V14.01,2013-01-11 03:43:00,
2013-01-10 22:48:00,43.8,36.7,24.32,South,171,5.0,7.0,76,0.00,,SKC,0.05,VWS V14.01,2013-01-11 03:48:00,
2013-01-10 22:53:00,43.8,36.7,24.30,SE,126,6.0,7.0,76,0.00,,SKC,0.05,VWS V14.01,2013-01-11 03:53:00,
2013-01-10 22:58:00,43.9,37.2,24.30,SSE,153,10.0,12.0,77,0.00,,SKC,0.05,VWS V14.01,2013-01-11 03:58:00,
2013-01-10 23:03:00,44.0,37.6,24.31,SSE,149,8.0,12.0,78,0.00,,SKC,0.05,VWS V14.01,2013-01-11 04:03:00,
2013-01-10 23:08:00,44.0,37.9,24.31,SSE,150,5.0,10.0,79,0.00,,SKC,0.05,VWS V14.01,2013-01-11 04:08:00,
2013-01-10 23:13:00,43.8,38.4,24.30,SSE,152,12.0,13.0,81,0.00,,SKC,0.05,VWS V14.01,2013-01-11 04:13:00,
2013-01-10 23:18:00,43.6,38.5,24.30,SSE,149,7.0,8.0,82,0.00,,SKC,0.05,VWS V14.01,2013-01-11 04:18:00,
2013-01-10 23:23:00,43.6,38.8,24.31,SSE,148,10.0,12.0,83,0.00,,SKC,0.05,VWS V14.01,2013-01-11 04:23:00,
2013-01-10 23:28:00,43.5,39.0,24.24,SE,134,3.0,12.0,84,0.00,,SKC,0.05,VWS V14.01,2013-01-11 04:28:00,
2013-01-10 23:33:00,43.4,39.2,24.24,SE,128,9.0,9.0,85,0.01,,SKC,0.06,VWS V14.01,2013-01-11 04:33:00,
2013-01-10 23:38:00,43.3,39.4,24.24,SSE,150,11.0,11.0,86,0.01,,SKC,0.06,VWS V14.01,2013-01-11 04:38:00,
2013-01-10 23:43:00,43.3,39.4,24.25,SE,133,8.0,10.0,86,0.01,,SKC,0.06,VWS V14.01,2013-01-11 04:43:00,
2013-01-10 23:48:00,43.3,39.4,24.28,South,171,4.0,9.0,86,0.01,,SKC,0.06,VWS V14.01,2013-01-11 04:48:00,
2013-01-10 23:53:00,43.5,39.3,24.23,SSE,149,13.0,13.0,85,0.01,,SKC,0.06,VWS V14.01,2013-01-11 04:53:00,
2013-01-10 23:58:00,43.7,39.2,24.23,SSE,154,5.0,7.0,84,0.01,,SKC,0.06,VWS V14.01,2013-01-11 04:58:00,